Drummond Island, MI

7:44 PM EST on February 19, 2018 (GMT -0500)
Drummond Island

Weather History for KDRM - July, 2013

Change the Weather History Date:

Friday, July 5, 2013

  Actual Average (KCIU) Record (KCIU)
Temperature  
Mean Temperature 68 °F -  
Max Temperature 79 °F 76 °F 89 °F (1989)
Min Temperature 57 °F 49 °F 35 °F (1979)
Cooling Degree Days 3    
Growing Degree Days 18 (Base 50)    
Moisture  
Dew Point 61 °F    
Average Humidity 79    
Maximum Humidity 100    
Minimum Humidity 55    
Precipitation  
Precipitation 0.00 in - - ()
Sea Level Pressure  
Sea Level Pressure 30.04 in    
Wind  
Wind Speed 3 mph (South)    
Max Wind Speed 9 mph    
Max Gust Speed -    
Visibility 8 miles    
Events      
Averages and records for this station are not official NWS values.
T = Trace of Precipitation, MM = Missing Value Source: NWS Daily Summary

Daily Weather History Graph

Daily Weather History Graph

Search for Another Location

Airport or City:

Trip Planner

Search our weather history database for the weather conditions in past years. The results will help you decide how hot, cold, wet, or windy it might be!

Date:

Astronomy

Jul. 05, 2013 Rise Set
Actual Time 5:50 AM EDT 9:28 PM EDT
Civil Twilight 5:12 AM EDT 10:06 PM EDT
Nautical Twilight 4:22 AM EDT 10:56 PM EDT
Astronomical Twilight 3:13 AM EDT 12:04 AM EDT
Moon 3:52 AM EDT (7/5) 7:19 PM EDT (7/5)
Length of Visible Light 16h 53m
Length of Day
15h 37m
Waning Crescent, 6% of the Moon is Illuminated
Jul 5
Waning Crescent
Jul 8
New
Jul 15
First Quarter
Jul 22
Full
Jul 29
Last Quarter

Hourly Weather History & Observations

Time (EDT) Temp. Dew Point Humidity Pressure Visibility Wind Dir Wind Speed Gust Speed Precip Events Conditions
12:16 AM 59.5 °F 59.5 °F 100% 30.06 in 3.0 mi Calm Calm - N/A   Scattered Clouds
12:36 AM 59.7 °F 59.7 °F 100% 30.06 in 3.0 mi Calm Calm - N/A   Mostly Cloudy
12:55 AM 59.9 °F 59.9 °F 100% 30.05 in 3.0 mi Calm Calm - N/A   Scattered Clouds
1:16 AM 59.2 °F 59.2 °F 100% 30.05 in 4.0 mi Calm Calm - N/A   Clear
1:35 AM 59.0 °F 59.0 °F 100% 30.05 in 4.0 mi Calm Calm - N/A   Clear
1:56 AM 59.0 °F 59.0 °F 100% 30.05 in 4.0 mi Calm Calm - N/A   Clear
2:16 AM 59.0 °F 59.0 °F 100% 30.05 in 4.0 mi Calm Calm - N/A   Clear
2:36 AM 59.0 °F 59.0 °F 100% 30.05 in 1.8 mi Calm Calm - N/A   Mist
2:56 AM 59.0 °F 59.0 °F 100% 30.05 in 3.0 mi Calm Calm - N/A   Clear
3:15 AM 58.3 °F 58.3 °F 100% 30.05 in 2.0 mi Calm Calm - N/A   Mist
3:36 AM 57.9 °F 57.9 °F 100% 30.05 in 2.0 mi Calm Calm - N/A   Mist
3:56 AM 57.2 °F 57.2 °F 100% 30.05 in 1.8 mi Calm Calm - N/A   Mist
4:16 AM 58.1 °F 58.1 °F 100% 30.05 in 3.0 mi Calm Calm - N/A   Clear
4:36 AM 58.1 °F 58.1 °F 100% 30.05 in 2.5 mi SSE 3.5 mph - N/A   Clear
4:56 AM 60.1 °F 60.1 °F 100% 30.05 in 4.0 mi SSE 3.5 mph - N/A   Clear
5:16 AM 59.9 °F 59.9 °F 100% 30.05 in 4.0 mi Calm Calm - N/A   Clear
5:36 AM 59.0 °F 59.0 °F 100% 30.04 in 3.0 mi Calm Calm - N/A   Mist
5:56 AM 58.5 °F 58.5 °F 100% 30.04 in 3.0 mi SSE 3.5 mph - N/A   Mist
6:16 AM 60.1 °F 60.1 °F 100% 30.04 in 5.0 mi Calm Calm - N/A   Clear
6:36 AM 60.3 °F 60.1 °F 99% 30.04 in 5.0 mi Calm Calm - N/A   Clear
6:56 AM 61.7 °F 61.7 °F 100% 30.04 in 7.0 mi South 5.8 mph - N/A   Clear
7:16 AM 64.6 °F 61.9 °F 91% 30.05 in 10.0 mi South 5.8 mph - N/A   Scattered Clouds
7:36 AM 65.8 °F 61.9 °F 87% 30.05 in 10.0 mi South 5.8 mph - N/A   Overcast
7:56 AM 65.8 °F 62.6 °F 89% 30.05 in 10.0 mi South 3.5 mph - N/A   Mostly Cloudy
8:16 AM 67.3 °F 62.6 °F 85% 30.05 in 10.0 mi SSW 5.8 mph - N/A   Mostly Cloudy
8:36 AM 67.3 °F 61.5 °F 82% 30.06 in 10.0 mi SSW 5.8 mph - N/A   Mostly Cloudy
8:56 AM 67.5 °F 61.7 °F 82% 30.06 in 10.0 mi South 5.8 mph - N/A   Mostly Cloudy
9:16 AM 68.2 °F 61.7 °F 80% 30.07 in 10.0 mi South 4.6 mph - N/A   Mostly Cloudy
9:36 AM 69.6 °F 62.2 °F 77% 30.07 in 10.0 mi South 5.8 mph - N/A   Scattered Clouds
9:56 AM 70.0 °F 62.4 °F 77% 30.06 in 10.0 mi South 6.9 mph - N/A   Clear
10:16 AM 72.9 °F 62.8 °F 71% 30.06 in 10.0 mi SW 6.9 mph - N/A   Clear
10:36 AM 73.4 °F 62.4 °F 68% 30.07 in 10.0 mi SW 4.6 mph - N/A   Clear
10:56 AM 74.3 °F 62.6 °F 67% 30.06 in 10.0 mi SW 5.8 mph - N/A   Scattered Clouds
11:16 AM 75.0 °F 63.1 °F 66% 30.06 in 10.0 mi SW 6.9 mph - N/A   Scattered Clouds
11:36 AM 75.7 °F 63.1 °F 65% 30.06 in 10.0 mi SW 3.5 mph - N/A   Clear
11:56 AM 76.1 °F 62.8 °F 63% 30.06 in 10.0 mi WSW 5.8 mph - N/A   Clear
12:16 PM 76.6 °F 62.2 °F 61% 30.06 in 10.0 mi WSW 6.9 mph - N/A   Clear
12:36 PM 77.5 °F 63.5 °F 62% 30.06 in 10.0 mi SW 9.2 mph - N/A   Clear
12:56 PM 78.1 °F 63.5 °F 61% 30.06 in 10.0 mi SSW 6.9 mph - N/A   Clear
1:16 PM 78.8 °F 63.1 °F 59% 30.06 in 10.0 mi SSW 5.8 mph - N/A   Clear
1:36 PM 78.3 °F 62.8 °F 59% 30.05 in 10.0 mi SSW 8.1 mph - N/A   Clear
1:56 PM 79.2 °F 63.1 °F 58% 30.06 in 10.0 mi SW 8.1 mph - N/A   Clear
2:16 PM 79.9 °F 63.1 °F 56% 30.05 in 10.0 mi SSW 6.9 mph - N/A   Clear
2:36 PM 78.6 °F 63.5 °F 60% 30.05 in 10.0 mi South 5.8 mph - N/A   Clear
2:55 PM 78.3 °F 63.7 °F 61% 30.04 in 10.0 mi South 5.8 mph - N/A   Clear
3:16 PM 77.7 °F 64.2 °F 63% 30.04 in 10.0 mi South 5.8 mph - N/A   Clear
3:36 PM 77.2 °F 63.7 °F 63% 30.04 in 10.0 mi SE 6.9 mph - N/A   Clear
3:56 PM 75.7 °F 62.8 °F 64% 30.03 in 10.0 mi SE 6.9 mph - N/A   Clear
4:16 PM 76.8 °F 63.0 °F 62% 30.03 in 10.0 mi SE 8.1 mph - N/A   Clear
4:36 PM 77.0 °F 61.9 °F 59% 30.02 in 10.0 mi South 9.2 mph - N/A   Clear
4:56 PM 77.7 °F 60.6 °F 55% 30.02 in 10.0 mi SE 6.9 mph - N/A   Clear
5:16 PM 76.5 °F 60.1 °F 57% 30.02 in 10.0 mi SSE 8.1 mph - N/A   Clear
5:36 PM 76.5 °F 59.5 °F 56% 30.01 in 10.0 mi SSE 6.9 mph - N/A   Clear
5:56 PM 76.1 °F 59.4 °F 56% 30.01 in 10.0 mi SE 6.9 mph - N/A   Clear
6:16 PM 75.7 °F 59.2 °F 56% 30.00 in 10.0 mi SSE 5.8 mph - N/A   Clear
6:36 PM 75.2 °F 59.7 °F 58% 30.00 in 10.0 mi SSE 8.1 mph - N/A   Clear
6:56 PM 74.7 °F 58.6 °F 57% 30.00 in 10.0 mi SSE 6.9 mph - N/A   Clear
7:16 PM 74.8 °F 59.9 °F 60% 30.00 in 10.0 mi SSE 3.5 mph - N/A   Clear
7:36 PM 74.3 °F 59.9 °F 61% 30.00 in 10.0 mi SSE 4.6 mph - N/A   Clear
7:56 PM 73.4 °F 59.9 °F 63% 30.00 in 10.0 mi South 6.9 mph - N/A   Clear
8:16 PM 72.7 °F 60.6 °F 66% 30.01 in 10.0 mi SSE 3.5 mph - N/A   Clear
8:36 PM 71.8 °F 60.8 °F 68% 30.01 in 10.0 mi SSE 3.5 mph - N/A   Clear
8:56 PM 70.7 °F 61.2 °F 72% 30.01 in 10.0 mi Calm Calm - N/A   Clear
9:16 PM 69.6 °F 61.3 °F 75% 30.01 in 10.0 mi Calm Calm - N/A   Clear
9:36 PM 68.2 °F 61.0 °F 78% 30.01 in 10.0 mi Calm Calm - N/A   Clear
9:55 PM 66.2 °F 61.0 °F 83% 30.01 in 10.0 mi Calm Calm - N/A   Clear
10:16 PM 65.3 °F 61.0 °F 86% 30.01 in 10.0 mi Calm Calm - N/A   Clear
10:36 PM 64.9 °F 61.2 °F 88% 30.02 in 10.0 mi Calm Calm - N/A   Clear
10:56 PM 64.4 °F 61.7 °F 91% 30.02 in 10.0 mi Calm Calm - N/A   Clear
11:16 PM 64.4 °F 61.7 °F 91% 30.02 in 10.0 mi Calm Calm - N/A   Clear
11:36 PM 62.1 °F 60.3 °F 94% 30.01 in 7.0 mi Calm Calm - N/A   Clear
11:56 PM 62.6 °F 61.5 °F 96% 30.02 in 7.0 mi Calm Calm - N/A   Clear